Year,Month,Day,Hour,Minute,Value (Times are PST for temperature in C)
2011,07,24,00,00,12.30
2011,07,24,00,01,12.30
2011,07,24,00,02,12.20
2011,07,24,00,03,12.20
2011,07,24,00,04,12.20
2011,07,24,00,05,12.20
2011,07,24,00,06,12.20
2011,07,24,00,07,12.20
2011,07,24,00,08,12.20
2011,07,24,00,09,12.20
2011,07,24,00,10,12.20
2011,07,24,00,11,12.20
2011,07,24,00,12,12.20
2011,07,24,00,13,12.20
2011,07,24,00,14,12.30
2011,07,24,00,15,12.30
2011,07,24,00,16,12.30
2011,07,24,00,17,12.30
2011,07,24,00,18,12.30
2011,07,24,00,19,12.30
2011,07,24,00,20,12.30
2011,07,24,00,21,12.30
2011,07,24,00,22,12.20
2011,07,24,00,23,12.20
2011,07,24,00,24,12.20
2011,07,24,00,25,12.20
2011,07,24,00,26,12.20
2011,07,24,00,27,12.20
2011,07,24,00,28,12.20
2011,07,24,00,29,12.20
2011,07,24,00,30,12.20
2011,07,24,00,31,12.20
2011,07,24,00,32,12.20
2011,07,24,00,33,12.20
2011,07,24,00,34,12.20
2011,07,24,00,35,12.10
2011,07,24,00,36,12.10
2011,07,24,00,37,12.10
2011,07,24,00,38,12.10
2011,07,24,00,39,12.10
2011,07,24,00,40,12.10
2011,07,24,00,41,12.10
2011,07,24,00,42,12.10
2011,07,24,00,43,12.10
2011,07,24,00,44,12.10
2011,07,24,00,45,12.10
2011,07,24,00,46,12.10
2011,07,24,00,47,12.10
2011,07,24,00,48,12.10
2011,07,24,00,49,12.10
2011,07,24,00,50,12.00
2011,07,24,00,51,12.00
2011,07,24,00,52,12.00
2011,07,24,00,53,12.00
2011,07,24,00,54,12.00
2011,07,24,00,55,12.00
2011,07,24,00,56,12.00
2011,07,24,00,57,12.00
2011,07,24,00,58,11.90
2011,07,24,00,59,11.90
2011,07,24,01,00,12.00
2011,07,24,01,01,12.00
2011,07,24,01,02,12.00
2011,07,24,01,03,12.00
2011,07,24,01,04,12.00
2011,07,24,01,05,12.00
2011,07,24,01,06,12.00
2011,07,24,01,07,12.10
2011,07,24,01,08,12.10
2011,07,24,01,09,12.10
2011,07,24,01,10,12.10
2011,07,24,01,11,12.10
2011,07,24,01,12,12.10
2011,07,24,01,13,12.10
2011,07,24,01,14,12.10
2011,07,24,01,15,12.10
2011,07,24,01,16,12.10
2011,07,24,01,17,12.10
2011,07,24,01,18,12.10
2011,07,24,01,19,12.10
2011,07,24,01,20,12.20
2011,07,24,01,21,12.20
2011,07,24,01,22,12.20
2011,07,24,01,23,12.20
2011,07,24,01,24,12.20
2011,07,24,01,25,12.20
2011,07,24,01,26,12.10
2011,07,24,01,27,12.10
2011,07,24,01,28,12.10
2011,07,24,01,29,12.10
2011,07,24,01,30,12.10
2011,07,24,01,31,12.10
2011,07,24,01,32,12.10
2011,07,24,01,33,12.10
2011,07,24,01,34,12.10
2011,07,24,01,35,12.10
2011,07,24,01,36,12.10
2011,07,24,01,37,12.10
2011,07,24,01,38,12.10
2011,07,24,01,39,12.10
2011,07,24,01,40,12.00
2011,07,24,01,41,12.00
2011,07,24,01,42,12.00
2011,07,24,01,43,12.00
2011,07,24,01,44,12.00
2011,07,24,01,45,12.00
2011,07,24,01,46,12.00
2011,07,24,01,47,12.00
2011,07,24,01,48,12.10
2011,07,24,01,49,12.10
2011,07,24,01,50,12.10
2011,07,24,01,51,12.20
2011,07,24,01,52,12.20
2011,07,24,01,53,12.20
2011,07,24,01,54,12.20
2011,07,24,01,55,12.30
2011,07,24,01,56,12.30
2011,07,24,01,57,12.30
2011,07,24,01,58,12.20
2011,07,24,01,59,12.20
2011,07,24,02,00,12.20
2011,07,24,02,01,12.20
2011,07,24,02,02,12.20
2011,07,24,02,03,12.20
2011,07,24,02,04,12.20
2011,07,24,02,05,12.30
2011,07,24,02,06,12.30
2011,07,24,02,07,12.30
2011,07,24,02,08,12.20
2011,07,24,02,09,12.20
2011,07,24,02,10,12.30
2011,07,24,02,11,12.30
2011,07,24,02,12,12.30
2011,07,24,02,13,12.30
2011,07,24,02,14,12.30
2011,07,24,02,15,12.30
2011,07,24,02,16,12.30
2011,07,24,02,17,12.30
2011,07,24,02,18,12.30
2011,07,24,02,19,12.30
2011,07,24,02,20,12.30
2011,07,24,02,21,12.30
2011,07,24,02,22,12.20
2011,07,24,02,23,12.20
2011,07,24,02,24,12.10
2011,07,24,02,25,12.10
2011,07,24,02,26,12.00
2011,07,24,02,27,12.00
2011,07,24,02,28,11.90
2011,07,24,02,29,11.90
2011,07,24,02,30,11.90
2011,07,24,02,31,11.80
2011,07,24,02,32,11.80
2011,07,24,02,33,11.80
2011,07,24,02,34,11.80
2011,07,24,02,35,11.80
2011,07,24,02,36,11.80
2011,07,24,02,37,11.80
2011,07,24,02,38,11.80
2011,07,24,02,39,11.80
2011,07,24,02,40,11.80
2011,07,24,02,41,11.80
2011,07,24,02,42,11.80
2011,07,24,02,43,11.80
2011,07,24,02,44,11.80
2011,07,24,02,45,11.80
2011,07,24,02,46,11.80
2011,07,24,02,47,11.80
2011,07,24,02,48,11.80
2011,07,24,02,49,11.80
2011,07,24,02,50,11.80
2011,07,24,02,51,11.80
2011,07,24,02,52,11.80
2011,07,24,02,53,11.80
2011,07,24,02,54,11.80
2011,07,24,02,55,11.70
2011,07,24,02,56,11.70
2011,07,24,02,57,11.80
2011,07,24,02,58,11.70
2011,07,24,02,59,11.70
2011,07,24,03,00,11.70
2011,07,24,03,01,11.70
2011,07,24,03,02,11.80
2011,07,24,03,03,11.80
2011,07,24,03,04,11.80
2011,07,24,03,05,11.80
2011,07,24,03,06,11.80
2011,07,24,03,07,11.80
2011,07,24,03,08,11.80
2011,07,24,03,09,11.80
2011,07,24,03,10,11.80
2011,07,24,03,11,11.80
2011,07,24,03,12,11.70
2011,07,24,03,13,11.70
2011,07,24,03,14,11.70
2011,07,24,03,15,11.60
2011,07,24,03,16,11.60
2011,07,24,03,17,11.60
2011,07,24,03,18,11.60
2011,07,24,03,19,11.60
2011,07,24,03,20,11.60
2011,07,24,03,21,11.60
2011,07,24,03,22,11.60
2011,07,24,03,23,11.60
2011,07,24,03,24,11.60
2011,07,24,03,25,11.60
2011,07,24,03,26,11.60
2011,07,24,03,27,11.70
2011,07,24,03,28,11.70
2011,07,24,03,29,11.80
2011,07,24,03,30,11.80
2011,07,24,03,31,11.80
2011,07,24,03,32,11.80
2011,07,24,03,33,11.90
2011,07,24,03,34,12.00
2011,07,24,03,35,12.00
2011,07,24,03,36,12.10
2011,07,24,03,37,12.20
2011,07,24,03,38,12.20
2011,07,24,03,39,12.20
2011,07,24,03,40,12.30
2011,07,24,03,41,12.30
2011,07,24,03,42,12.30
2011,07,24,03,43,12.30
2011,07,24,03,44,12.30
2011,07,24,03,45,12.30
2011,07,24,03,46,12.30
2011,07,24,03,47,12.30
2011,07,24,03,48,12.30
2011,07,24,03,49,12.30
2011,07,24,03,50,12.30
2011,07,24,03,51,12.30
2011,07,24,03,52,12.30
2011,07,24,03,53,12.30
2011,07,24,03,54,12.20
2011,07,24,03,55,12.20
2011,07,24,03,56,12.10
2011,07,24,03,57,12.10
2011,07,24,03,58,12.10
2011,07,24,03,59,12.00
2011,07,24,04,00,12.00
2011,07,24,04,01,12.00
2011,07,24,04,02,11.90
2011,07,24,04,03,11.80
2011,07,24,04,04,11.80
2011,07,24,04,05,11.80
2011,07,24,04,06,11.70
2011,07,24,04,07,11.60
2011,07,24,04,08,11.50
2011,07,24,04,09,11.40
2011,07,24,04,10,11.40
2011,07,24,04,11,11.40
2011,07,24,04,12,11.30
2011,07,24,04,13,11.30
2011,07,24,04,14,11.20
2011,07,24,04,15,11.20
2011,07,24,04,16,11.20
2011,07,24,04,17,11.20
2011,07,24,04,18,11.20
2011,07,24,04,19,11.10
2011,07,24,04,20,11.10
2011,07,24,04,21,11.10
2011,07,24,04,22,11.10
2011,07,24,04,23,11.10
2011,07,24,04,24,10.90
2011,07,24,04,25,10.90
2011,07,24,04,26,10.90
2011,07,24,04,27,10.90
2011,07,24,04,28,10.90
2011,07,24,04,29,10.90
2011,07,24,04,30,10.90
2011,07,24,04,31,10.90
2011,07,24,04,32,10.90
2011,07,24,04,33,10.90
2011,07,24,04,34,10.90
2011,07,24,04,35,10.90
2011,07,24,04,36,10.90
2011,07,24,04,37,10.90
2011,07,24,04,38,10.90
2011,07,24,04,39,11.00
2011,07,24,04,40,11.10
2011,07,24,04,41,11.10
2011,07,24,04,42,11.10
2011,07,24,04,43,11.10
2011,07,24,04,44,11.10
2011,07,24,04,45,11.10
2011,07,24,04,46,11.10
2011,07,24,04,47,11.10
2011,07,24,04,48,11.10
2011,07,24,04,49,11.10
2011,07,24,04,50,11.10
2011,07,24,04,51,11.10
2011,07,24,04,52,11.10
2011,07,24,04,53,11.10
2011,07,24,04,54,11.10
2011,07,24,04,55,11.10
2011,07,24,04,56,11.10
2011,07,24,04,57,11.10
2011,07,24,04,58,11.10
2011,07,24,04,59,11.20
2011,07,24,05,00,11.20
2011,07,24,05,01,11.20
2011,07,24,05,02,11.20
2011,07,24,05,03,11.10
2011,07,24,05,04,11.10
2011,07,24,05,05,11.10
2011,07,24,05,06,11.10
2011,07,24,05,07,11.10
2011,07,24,05,08,11.10
2011,07,24,05,09,11.10
2011,07,24,05,10,11.10
2011,07,24,05,11,11.10
2011,07,24,05,12,11.10
2011,07,24,05,13,11.10
2011,07,24,05,14,11.10
2011,07,24,05,15,11.10
2011,07,24,05,16,11.00
2011,07,24,05,17,10.90
2011,07,24,05,18,10.90
2011,07,24,05,19,10.80
2011,07,24,05,20,10.80
2011,07,24,05,21,10.70
2011,07,24,05,22,10.70
2011,07,24,05,23,10.60
2011,07,24,05,24,10.60
2011,07,24,05,25,10.60
2011,07,24,05,26,10.60
2011,07,24,05,27,10.60
2011,07,24,05,28,10.60
2011,07,24,05,29,10.60
2011,07,24,05,30,10.60
2011,07,24,05,31,10.60
2011,07,24,05,32,10.60
2011,07,24,05,33,10.60
2011,07,24,05,34,10.60
2011,07,24,05,35,10.60
2011,07,24,05,36,10.60
2011,07,24,05,37,10.60
2011,07,24,05,38,10.60
2011,07,24,05,39,10.60
2011,07,24,05,40,10.70
2011,07,24,05,41,10.70
2011,07,24,05,42,10.70
2011,07,24,05,43,10.60
2011,07,24,05,44,10.50
2011,07,24,05,45,10.40
2011,07,24,05,46,10.40
2011,07,24,05,47,10.40
2011,07,24,05,48,10.40
2011,07,24,05,49,10.40
2011,07,24,05,50,10.40
2011,07,24,05,51,10.40
2011,07,24,05,52,10.40
2011,07,24,05,53,10.30
2011,07,24,05,54,10.30
2011,07,24,05,55,10.30
2011,07,24,05,56,10.30
2011,07,24,05,57,10.30
2011,07,24,05,58,10.40
2011,07,24,05,59,10.40
2011,07,24,06,00,10.40
2011,07,24,06,01,10.40
2011,07,24,06,02,10.40
2011,07,24,06,03,10.40
2011,07,24,06,04,10.50
2011,07,24,06,05,10.60
2011,07,24,06,06,10.60
2011,07,24,06,07,10.60
2011,07,24,06,08,10.60
2011,07,24,06,09,10.60
2011,07,24,06,10,10.60
2011,07,24,06,11,10.60
2011,07,24,06,12,10.60
2011,07,24,06,13,10.60
2011,07,24,06,14,10.60
2011,07,24,06,15,10.60
2011,07,24,06,16,10.60
2011,07,24,06,17,10.60
2011,07,24,06,18,10.60
2011,07,24,06,19,10.60
2011,07,24,06,20,10.70
2011,07,24,06,21,10.70
2011,07,24,06,22,10.80
2011,07,24,06,23,10.80
2011,07,24,06,24,10.90
2011,07,24,06,25,10.90
2011,07,24,06,26,11.00
2011,07,24,06,27,11.10
2011,07,24,06,28,11.20
2011,07,24,06,29,11.30
2011,07,24,06,30,11.30
2011,07,24,06,31,11.40
2011,07,24,06,32,11.40
2011,07,24,06,33,11.50
2011,07,24,06,34,11.60
2011,07,24,06,35,11.60
2011,07,24,06,36,11.70
2011,07,24,06,37,11.70
2011,07,24,06,38,11.70
2011,07,24,06,39,11.80
2011,07,24,06,40,11.80
2011,07,24,06,41,11.80
2011,07,24,06,42,11.80
2011,07,24,06,43,11.80
2011,07,24,06,44,11.80
2011,07,24,06,45,11.80
2011,07,24,06,46,11.80
2011,07,24,06,47,11.80
2011,07,24,06,48,11.90
2011,07,24,06,49,11.90
2011,07,24,06,50,12.00
2011,07,24,06,51,12.00
2011,07,24,06,52,12.00
2011,07,24,06,53,12.00
2011,07,24,06,54,12.10
2011,07,24,06,55,12.10
2011,07,24,06,56,12.10
2011,07,24,06,57,12.20
2011,07,24,06,58,12.30
2011,07,24,06,59,12.30
2011,07,24,07,00,12.30
2011,07,24,07,01,12.30
2011,07,24,07,02,12.30
2011,07,24,07,03,12.40
2011,07,24,07,04,12.40
2011,07,24,07,05,12.50
2011,07,24,07,06,12.60
2011,07,24,07,07,12.60
2011,07,24,07,08,12.80
2011,07,24,07,09,12.80
2011,07,24,07,10,12.90
2011,07,24,07,11,13.00
2011,07,24,07,12,13.10
2011,07,24,07,13,13.10
2011,07,24,07,14,13.20
2011,07,24,07,15,13.30
2011,07,24,07,16,13.40
2011,07,24,07,17,13.50
2011,07,24,07,18,13.50
2011,07,24,07,19,13.60
2011,07,24,07,20,13.70
2011,07,24,07,21,13.70
2011,07,24,07,22,13.70
2011,07,24,07,23,13.70
2011,07,24,07,24,13.80
2011,07,24,07,25,13.90
2011,07,24,07,26,13.90
2011,07,24,07,27,14.00
2011,07,24,07,28,14.10
2011,07,24,07,29,14.20
2011,07,24,07,30,14.20
2011,07,24,07,31,14.20
2011,07,24,07,32,14.30
2011,07,24,07,33,14.40
2011,07,24,07,34,14.40
2011,07,24,07,35,14.50
2011,07,24,07,36,14.60
2011,07,24,07,37,14.60
2011,07,24,07,38,14.70
2011,07,24,07,39,14.70
2011,07,24,07,40,14.80
2011,07,24,07,41,14.90
2011,07,24,07,42,15.00
2011,07,24,07,43,15.10
2011,07,24,07,44,15.20
2011,07,24,07,45,15.30
2011,07,24,07,46,15.40
2011,07,24,07,47,15.60
2011,07,24,07,48,15.70
2011,07,24,07,49,15.80
2011,07,24,07,50,15.90
2011,07,24,07,51,16.00
2011,07,24,07,52,16.10
2011,07,24,07,53,16.10
2011,07,24,07,54,16.20
2011,07,24,07,55,16.30
2011,07,24,07,56,16.40
2011,07,24,07,57,16.40
2011,07,24,07,58,16.50
2011,07,24,07,59,16.60
2011,07,24,08,00,16.80
2011,07,24,08,01,16.90
2011,07,24,08,02,17.10
2011,07,24,08,03,17.30
2011,07,24,08,04,17.40
2011,07,24,08,05,17.50
2011,07,24,08,06,17.70
2011,07,24,08,07,17.80
2011,07,24,08,08,17.80
2011,07,24,08,09,17.90
2011,07,24,08,10,17.90
2011,07,24,08,11,17.90
2011,07,24,08,12,17.90
2011,07,24,08,13,18.00
2011,07,24,08,14,18.10
2011,07,24,08,15,18.10
2011,07,24,08,16,18.10
2011,07,24,08,17,18.20
2011,07,24,08,18,18.20
2011,07,24,08,19,18.20
2011,07,24,08,20,18.20
2011,07,24,08,21,18.30
2011,07,24,08,22,18.30
2011,07,24,08,23,18.40
2011,07,24,08,24,18.40
2011,07,24,08,25,18.50
2011,07,24,08,26,18.60
2011,07,24,08,27,18.60
2011,07,24,08,28,18.70
2011,07,24,08,29,18.80
2011,07,24,08,30,18.80
2011,07,24,08,31,18.90
2011,07,24,08,32,18.90
2011,07,24,08,33,19.00
2011,07,24,08,34,19.10
2011,07,24,08,35,19.20
2011,07,24,08,36,19.20
2011,07,24,08,37,19.20
2011,07,24,08,38,19.20
2011,07,24,08,39,19.30
2011,07,24,08,40,19.30
2011,07,24,08,41,19.40
2011,07,24,08,42,19.40
2011,07,24,08,43,19.50
2011,07,24,08,44,19.60
2011,07,24,08,45,19.60
2011,07,24,08,46,19.60
2011,07,24,08,47,19.60
2011,07,24,08,48,19.60
2011,07,24,08,49,19.70
2011,07,24,08,50,19.70
2011,07,24,08,51,19.70
2011,07,24,08,52,19.70
2011,07,24,08,53,19.70
2011,07,24,08,54,19.80
2011,07,24,08,55,19.80
2011,07,24,08,56,19.80
2011,07,24,08,57,19.80
2011,07,24,08,58,19.90
2011,07,24,08,59,19.90
2011,07,24,09,00,19.90
2011,07,24,09,01,19.90
2011,07,24,09,02,19.90
2011,07,24,09,03,19.90
2011,07,24,09,04,19.90
2011,07,24,09,05,19.90
2011,07,24,09,06,19.90
2011,07,24,09,07,19.90
2011,07,24,09,08,19.90
2011,07,24,09,09,19.90
2011,07,24,09,10,19.90
2011,07,24,09,11,19.90
2011,07,24,09,12,19.90
2011,07,24,09,13,19.90
2011,07,24,09,14,19.90
2011,07,24,09,15,19.90
2011,07,24,09,16,19.90
2011,07,24,09,17,19.90
2011,07,24,09,18,19.90
2011,07,24,09,19,19.80
2011,07,24,09,20,19.80
2011,07,24,09,21,19.80
2011,07,24,09,22,19.90
2011,07,24,09,23,19.80
2011,07,24,09,24,19.70
2011,07,24,09,25,19.60
2011,07,24,09,26,19.50
2011,07,24,09,27,19.50
2011,07,24,09,28,19.60
2011,07,24,09,29,19.60
2011,07,24,09,30,19.60
2011,07,24,09,31,19.70
2011,07,24,09,32,19.70
2011,07,24,09,33,19.80
2011,07,24,09,34,19.90
2011,07,24,09,35,20.00
2011,07,24,09,36,20.20
2011,07,24,09,37,20.40
2011,07,24,09,38,20.60
2011,07,24,09,39,20.70
2011,07,24,09,40,20.80
2011,07,24,09,41,20.80
2011,07,24,09,42,20.90
2011,07,24,09,43,20.90
2011,07,24,09,44,20.90
2011,07,24,09,45,20.90
2011,07,24,09,46,21.00
2011,07,24,09,47,21.00
2011,07,24,09,48,21.10
2011,07,24,09,49,21.30
2011,07,24,09,50,21.40
2011,07,24,09,51,21.50
2011,07,24,09,52,21.60
2011,07,24,09,53,21.60
2011,07,24,09,54,21.60
2011,07,24,09,55,21.60
2011,07,24,09,56,21.60
2011,07,24,09,57,21.70
2011,07,24,09,58,21.70
2011,07,24,09,59,21.80
2011,07,24,10,00,21.80
2011,07,24,10,01,21.60
2011,07,24,10,02,21.60
2011,07,24,10,03,21.50
2011,07,24,10,04,21.40
2011,07,24,10,05,21.30
2011,07,24,10,06,21.30
2011,07,24,10,07,21.20
2011,07,24,10,08,21.10
2011,07,24,10,09,21.00
2011,07,24,10,10,20.90
2011,07,24,10,11,20.80
2011,07,24,10,12,20.80
2011,07,24,10,13,20.80
2011,07,24,10,14,20.90
2011,07,24,10,15,20.90
2011,07,24,10,16,21.00
2011,07,24,10,17,21.00
2011,07,24,10,18,20.90
2011,07,24,10,19,20.90
2011,07,24,10,20,20.80
2011,07,24,10,21,20.90
2011,07,24,10,22,20.90
2011,07,24,10,23,20.80
2011,07,24,10,24,20.80
2011,07,24,10,25,20.80
2011,07,24,10,26,21.00
2011,07,24,10,27,21.10
2011,07,24,10,28,21.20
2011,07,24,10,29,21.20
2011,07,24,10,30,21.20
2011,07,24,10,31,21.20
2011,07,24,10,32,21.10
2011,07,24,10,33,21.00
2011,07,24,10,34,21.00
2011,07,24,10,35,21.00
2011,07,24,10,36,21.00
2011,07,24,10,37,21.00
2011,07,24,10,38,21.00
2011,07,24,10,39,21.00
2011,07,24,10,40,21.00
2011,07,24,10,41,21.00
2011,07,24,10,42,21.10
2011,07,24,10,43,21.20
2011,07,24,10,44,21.20
2011,07,24,10,45,21.20
2011,07,24,10,46,21.30
2011,07,24,10,47,21.30
2011,07,24,10,48,21.30
2011,07,24,10,49,21.30
2011,07,24,10,50,21.30
2011,07,24,10,51,21.20
2011,07,24,10,52,21.10
2011,07,24,10,53,21.00
2011,07,24,10,54,20.80
2011,07,24,10,55,20.80
2011,07,24,10,56,20.80
2011,07,24,10,57,20.80
2011,07,24,10,58,20.80
2011,07,24,10,59,20.80
2011,07,24,11,00,20.80
2011,07,24,11,01,20.80
2011,07,24,11,02,20.80
2011,07,24,11,03,20.60
2011,07,24,11,04,20.60
2011,07,24,11,05,20.60
2011,07,24,11,06,20.60
2011,07,24,11,07,20.60
2011,07,24,11,08,20.50
2011,07,24,11,09,20.50
2011,07,24,11,10,20.60
2011,07,24,11,11,20.60
2011,07,24,11,12,20.70
2011,07,24,11,13,20.70
2011,07,24,11,14,20.80
2011,07,24,11,15,20.80
2011,07,24,11,16,20.90
2011,07,24,11,17,21.00
2011,07,24,11,18,21.10
2011,07,24,11,19,21.20
2011,07,24,11,20,21.30
2011,07,24,11,21,21.30
2011,07,24,11,22,21.30
2011,07,24,11,23,21.40
2011,07,24,11,24,21.40
2011,07,24,11,25,21.50
2011,07,24,11,26,21.70
2011,07,24,11,27,21.70
2011,07,24,11,28,21.90
2011,07,24,11,29,22.00
2011,07,24,11,30,22.10
2011,07,24,11,31,22.30
2011,07,24,11,32,22.50
2011,07,24,11,33,22.60
2011,07,24,11,34,22.60
2011,07,24,11,35,22.40
2011,07,24,11,36,22.30
2011,07,24,11,37,22.20
2011,07,24,11,38,22.20
2011,07,24,11,39,22.30
2011,07,24,11,40,22.30
2011,07,24,11,41,22.40
2011,07,24,11,42,22.50
2011,07,24,11,43,22.60
2011,07,24,11,44,22.60
2011,07,24,11,45,22.60
2011,07,24,11,46,22.70
2011,07,24,11,47,22.70
2011,07,24,11,48,22.70
2011,07,24,11,49,22.70
2011,07,24,11,50,22.70
2011,07,24,11,51,22.80
2011,07,24,11,52,22.70
2011,07,24,11,53,22.50
2011,07,24,11,54,22.40
2011,07,24,11,55,22.40
2011,07,24,11,56,22.30
2011,07,24,11,57,22.40
2011,07,24,11,58,22.30
2011,07,24,11,59,22.20
2011,07,24,12,00,22.20
2011,07,24,12,01,22.20
2011,07,24,12,02,22.30
2011,07,24,12,03,22.20
2011,07,24,12,04,22.20
2011,07,24,12,05,22.10
2011,07,24,12,06,22.00
2011,07,24,12,07,21.80
2011,07,24,12,08,21.60
2011,07,24,12,09,21.60
2011,07,24,12,10,21.60
2011,07,24,12,11,21.70
2011,07,24,12,12,21.70
2011,07,24,12,13,21.60
2011,07,24,12,14,21.60
2011,07,24,12,15,21.70
2011,07,24,12,16,21.80
2011,07,24,12,17,21.80
2011,07,24,12,18,21.70
2011,07,24,12,19,21.70
2011,07,24,12,20,21.60
2011,07,24,12,21,21.80
2011,07,24,12,22,21.80
2011,07,24,12,23,21.90
2011,07,24,12,24,21.90
2011,07,24,12,25,22.00
2011,07,24,12,26,22.10
2011,07,24,12,27,22.10
2011,07,24,12,28,22.20
2011,07,24,12,29,22.20
2011,07,24,12,30,22.30
2011,07,24,12,31,22.10
2011,07,24,12,32,21.90
2011,07,24,12,33,21.80
2011,07,24,12,34,21.90
2011,07,24,12,35,22.10
2011,07,24,12,36,22.20
2011,07,24,12,37,22.10
2011,07,24,12,38,22.10
2011,07,24,12,39,22.10
2011,07,24,12,40,22.00
2011,07,24,12,41,21.90
2011,07,24,12,42,22.00
2011,07,24,12,43,21.90
2011,07,24,12,44,21.90
2011,07,24,12,45,22.00
2011,07,24,12,46,22.10
2011,07,24,12,47,22.00
2011,07,24,12,48,22.00
2011,07,24,12,49,22.00
2011,07,24,12,50,22.00
2011,07,24,12,51,22.00
2011,07,24,12,52,22.00
2011,07,24,12,53,22.00
2011,07,24,12,54,22.10
2011,07,24,12,55,22.20
2011,07,24,12,56,22.30
2011,07,24,12,57,22.40
2011,07,24,12,58,22.30
2011,07,24,12,59,22.20
2011,07,24,13,00,22.20
2011,07,24,13,01,22.30
2011,07,24,13,02,22.30
2011,07,24,13,03,22.30
2011,07,24,13,04,22.30
2011,07,24,13,05,22.30
2011,07,24,13,06,22.30
2011,07,24,13,07,22.40
2011,07,24,13,08,22.40
2011,07,24,13,09,22.50
2011,07,24,13,10,22.50
2011,07,24,13,11,22.50
2011,07,24,13,12,22.50
2011,07,24,13,13,22.50
2011,07,24,13,14,22.50
2011,07,24,13,15,22.50
2011,07,24,13,16,22.60
2011,07,24,13,17,22.60
2011,07,24,13,18,22.80
2011,07,24,13,19,22.90
2011,07,24,13,20,22.90
2011,07,24,13,21,22.90
2011,07,24,13,22,22.90
2011,07,24,13,23,23.00
2011,07,24,13,24,23.00
2011,07,24,13,25,23.00
2011,07,24,13,26,23.10
2011,07,24,13,27,23.00
2011,07,24,13,28,22.90
2011,07,24,13,29,22.90
2011,07,24,13,30,22.90
2011,07,24,13,31,23.00
2011,07,24,13,32,23.10
2011,07,24,13,33,23.20
2011,07,24,13,34,23.20
2011,07,24,13,35,23.10
2011,07,24,13,36,23.10
2011,07,24,13,37,23.10
2011,07,24,13,38,23.20
2011,07,24,13,39,23.30
2011,07,24,13,40,23.30
2011,07,24,13,41,23.20
2011,07,24,13,42,23.00
2011,07,24,13,43,23.10
2011,07,24,13,44,22.90
2011,07,24,13,45,22.80
2011,07,24,13,46,22.70
2011,07,24,13,47,22.60
2011,07,24,13,48,22.50
2011,07,24,13,49,22.40
2011,07,24,13,50,22.20
2011,07,24,13,51,22.20
2011,07,24,13,52,22.10
2011,07,24,13,53,22.00
2011,07,24,13,54,21.90
2011,07,24,13,55,21.90
2011,07,24,13,56,21.90
2011,07,24,13,57,21.90
2011,07,24,13,58,22.00
2011,07,24,13,59,22.00
2011,07,24,14,00,22.00
2011,07,24,14,01,22.00
2011,07,24,14,02,22.10
2011,07,24,14,03,22.20
2011,07,24,14,04,22.30
2011,07,24,14,05,22.40
2011,07,24,14,06,22.40
2011,07,24,14,07,22.30
2011,07,24,14,08,22.20
2011,07,24,14,09,22.20
2011,07,24,14,10,22.30
2011,07,24,14,11,22.40
2011,07,24,14,12,22.50
2011,07,24,14,13,22.60
2011,07,24,14,14,22.40
2011,07,24,14,15,22.30
2011,07,24,14,16,22.40
2011,07,24,14,17,22.50
2011,07,24,14,18,22.50
2011,07,24,14,19,22.40
2011,07,24,14,20,22.20
2011,07,24,14,21,22.20
2011,07,24,14,22,22.20
2011,07,24,14,23,22.30
2011,07,24,14,24,22.30
2011,07,24,14,25,22.50
2011,07,24,14,26,22.70
2011,07,24,14,27,22.90
2011,07,24,14,28,23.10
2011,07,24,14,29,23.20
2011,07,24,14,30,23.20
2011,07,24,14,31,23.10
2011,07,24,14,32,23.00
2011,07,24,14,33,22.90
2011,07,24,14,34,22.90
2011,07,24,14,35,22.90
2011,07,24,14,36,22.80
2011,07,24,14,37,22.60
2011,07,24,14,38,22.40
2011,07,24,14,39,22.30
2011,07,24,14,40,22.10
2011,07,24,14,41,22.10
2011,07,24,14,42,22.20
2011,07,24,14,43,22.30
2011,07,24,14,44,22.40
2011,07,24,14,45,22.40
2011,07,24,14,46,22.60
2011,07,24,14,47,22.70
2011,07,24,14,48,22.90
2011,07,24,14,49,22.90
2011,07,24,14,50,22.90
2011,07,24,14,51,23.00
2011,07,24,14,52,23.10
2011,07,24,14,53,23.30
2011,07,24,14,54,23.40
2011,07,24,14,55,23.60
2011,07,24,14,56,23.60
2011,07,24,14,57,23.40
2011,07,24,14,58,23.30
2011,07,24,14,59,23.30
2011,07,24,15,00,23.30
2011,07,24,15,01,23.30
2011,07,24,15,02,23.10
2011,07,24,15,03,22.90
2011,07,24,15,04,22.90
2011,07,24,15,05,23.10
2011,07,24,15,06,23.20
2011,07,24,15,07,23.30
2011,07,24,15,08,23.40
2011,07,24,15,09,23.60
2011,07,24,15,10,23.60
2011,07,24,15,11,23.70
2011,07,24,15,12,23.70
2011,07,24,15,13,23.70
2011,07,24,15,14,23.80
2011,07,24,15,15,23.90
2011,07,24,15,16,24.00
2011,07,24,15,17,24.10
2011,07,24,15,18,24.10
2011,07,24,15,19,24.10
2011,07,24,15,20,24.20
2011,07,24,15,21,24.30
2011,07,24,15,22,24.40
2011,07,24,15,23,24.50
2011,07,24,15,24,24.60
2011,07,24,15,25,24.60
2011,07,24,15,26,24.50
2011,07,24,15,27,24.40
2011,07,24,15,28,24.40
2011,07,24,15,29,24.40
2011,07,24,15,30,24.30
2011,07,24,15,31,24.30
2011,07,24,15,32,24.20
2011,07,24,15,33,24.30
2011,07,24,15,34,24.40
2011,07,24,15,35,24.50
2011,07,24,15,36,24.50
2011,07,24,15,37,24.60
2011,07,24,15,38,24.70
2011,07,24,15,39,24.60
2011,07,24,15,40,24.20
2011,07,24,15,41,23.80
2011,07,24,15,42,23.60
2011,07,24,15,43,23.60
2011,07,24,15,44,23.40
2011,07,24,15,45,23.30
2011,07,24,15,46,23.30
2011,07,24,15,47,23.20
2011,07,24,15,48,23.30
2011,07,24,15,49,23.40
2011,07,24,15,50,23.60
2011,07,24,15,51,23.90
2011,07,24,15,52,24.00
2011,07,24,15,53,24.10
2011,07,24,15,54,24.30
2011,07,24,15,55,24.50
2011,07,24,15,56,24.60
2011,07,24,15,57,24.60
2011,07,24,15,58,24.60
2011,07,24,15,59,24.50
2011,07,24,16,00,24.40
2011,07,24,16,01,24.50
2011,07,24,16,02,24.30
2011,07,24,16,03,24.10
2011,07,24,16,04,24.10
2011,07,24,16,05,24.20
2011,07,24,16,06,24.30
2011,07,24,16,07,24.30
2011,07,24,16,08,24.30
2011,07,24,16,09,24.40
2011,07,24,16,10,24.40
2011,07,24,16,11,24.40
2011,07,24,16,12,24.40
2011,07,24,16,13,24.20
2011,07,24,16,14,24.00
2011,07,24,16,15,23.90
2011,07,24,16,16,23.90
2011,07,24,16,17,23.90
2011,07,24,16,18,23.90
2011,07,24,16,19,23.80
2011,07,24,16,20,23.70
2011,07,24,16,21,23.70
2011,07,24,16,22,23.70
2011,07,24,16,23,23.80
2011,07,24,16,24,24.00
2011,07,24,16,25,24.10
2011,07,24,16,26,24.20
2011,07,24,16,27,24.20
2011,07,24,16,28,24.20
2011,07,24,16,29,24.10
2011,07,24,16,30,24.10
2011,07,24,16,31,24.20
2011,07,24,16,32,24.20
2011,07,24,16,33,24.30
2011,07,24,16,34,24.20
2011,07,24,16,35,24.20
2011,07,24,16,36,24.10
2011,07,24,16,37,23.90
2011,07,24,16,38,23.90
2011,07,24,16,39,24.10
2011,07,24,16,40,24.00
2011,07,24,16,41,23.90
2011,07,24,16,42,23.90
2011,07,24,16,43,23.80
2011,07,24,16,44,23.70
2011,07,24,16,45,23.70
2011,07,24,16,46,23.60
2011,07,24,16,47,23.60
2011,07,24,16,48,23.60
2011,07,24,16,49,23.50
2011,07,24,16,50,23.40
2011,07,24,16,51,23.50
2011,07,24,16,52,23.60
2011,07,24,16,53,23.60
2011,07,24,16,54,23.40
2011,07,24,16,55,23.20
2011,07,24,16,56,23.10
2011,07,24,16,57,22.90
2011,07,24,16,58,22.90
2011,07,24,16,59,22.80
2011,07,24,17,00,22.70
2011,07,24,17,01,22.70
2011,07,24,17,02,22.70
2011,07,24,17,03,22.90
2011,07,24,17,04,23.00
2011,07,24,17,05,23.20
2011,07,24,17,06,23.30
2011,07,24,17,07,23.40
2011,07,24,17,08,23.30
2011,07,24,17,09,22.90
2011,07,24,17,10,22.70
2011,07,24,17,11,22.30
2011,07,24,17,12,22.10
2011,07,24,17,13,22.00
2011,07,24,17,14,21.70
2011,07,24,17,15,21.50
2011,07,24,17,16,21.30
2011,07,24,17,17,21.00
2011,07,24,17,18,20.70
2011,07,24,17,19,20.50